This is the latest recevied weather packets stored in our database for station/object K7DC. If no packets are shown the sender has not sent any weather packets the latest 1 day(s).
| Time | Temp. | Humidity | Pressure | Rain* | Wind** | Luminosity | Snow |
|---|---|---|---|---|---|---|---|
| 1778039462 | 17.78° C | 40% | 1013.4 hPa | 0 mm | 0.45 m/s, 317° | 0 W/m² | - |
| 1778039159 | 17.78° C | 40% | 1013.2 hPa | 0 mm | 0.45 m/s, 276° | 0 W/m² | - |
| 1778038856 | 17.78° C | 39% | 1013.4 hPa | 0 mm | 0.89 m/s, 256° | 0 W/m² | - |
| 1778038553 | 17.78° C | 39% | 1013.2 hPa | 0 mm | 1.79 m/s, 277° | 0 W/m² | - |
| 1778038250 | 18.33° C | 39% | 1013 hPa | 0 mm | 0.45 m/s, 327° | 0 W/m² | - |
| 1778037948 | 18.33° C | 38% | 1013 hPa | 0 mm | 1.34 m/s, 296° | 0 W/m² | - |
| 1778037644 | 18.33° C | 38% | 1012.9 hPa | 0 mm | 1.34 m/s, 308° | 0 W/m² | - |
| 1778037342 | 18.33° C | 38% | 1012.8 hPa | 0 mm | 1.34 m/s, 257° | 0 W/m² | - |
| 1778037038 | 18.89° C | 37% | 1012.6 hPa | 0 mm | 0.89 m/s, 277° | 0 W/m² | - |
| 1778036737 | 18.89° C | 36% | 1012.7 hPa | 0 mm | 1.79 m/s, 262° | 0 W/m² | - |
| 1778036434 | 18.89° C | 36% | 1012.7 hPa | 0 mm | 2.68 m/s, 270° | 0 W/m² | - |
| 1778036131 | 18.89° C | 35% | 1012.6 hPa | 0 mm | 1.79 m/s, 255° | 0 W/m² | - |
| 1778035827 | 18.89° C | 35% | 1012.5 hPa | 0 mm | 2.24 m/s, 258° | 0 W/m² | - |
| 1778035524 | 18.89° C | 34% | 1012.4 hPa | 0 mm | 2.24 m/s, 233° | 0 W/m² | - |
| 1778035220 | 19.44° C | 33% | 1012.4 hPa | 0 mm | 2.24 m/s, 275° | 0 W/m² | - |
| 1778034916 | 19.44° C | 33% | 1012.2 hPa | 0 mm | 1.34 m/s, 274° | 0 W/m² | - |
| 1778034614 | 19.44° C | 33% | 1012 hPa | 0 mm | 0.89 m/s, 249° | 0 W/m² | - |
| 1778034311 | 19.44° C | 33% | 1012 hPa | 0 mm | 1.34 m/s, 209° | 0 W/m² | - |
| 1778034008 | 20° C | 32% | 1011.8 hPa | 0 mm | 2.24 m/s, 251° | 1 W/m² | - |
| 1778033706 | 20° C | 32% | 1011.6 hPa | 0 mm | 1.79 m/s, 256° | 1 W/m² | - |
| 1778033403 | 20° C | 33% | 1011.8 hPa | 0 mm | 1.34 m/s, 276° | 3 W/m² | - |
| 1778033101 | 20° C | 33% | 1011.4 hPa | 0 mm | 2.24 m/s, 281° | 5 W/m² | - |
| 1778032797 | 20° C | 32% | 1011.5 hPa | 0 mm | 0.45 m/s, 295° | 8 W/m² | - |
| 1778032495 | 20.56° C | 32% | 1011.5 hPa | 0 mm | 2.24 m/s, 185° | 10 W/m² | - |
| 1778032192 | 20.56° C | 31% | 1011.6 hPa | 0 mm | 1.34 m/s, 256° | 13 W/m² | - |
* Rain latest hour (hover to see other rain measurements)
** Current wind speed in m/s (hover to see current wind gust speed)